| time (UTC) | temp F | wind direction | speed knots | gust knots | rain 1hr in | rain 24hr in | rain mn in | humidity % | barometer mb |
| 20260902214551 | 91 | 41 | 0.0 | 0.0 | 0.00 | 0.00 | 0.00 | 65 | 1016.2 |
| 20260902213048 | 91 | 41 | 0.0 | 0.0 | 0.00 | 0.00 | 0.00 | 69 | 1016.2 |
| 20260902211549 | 93 | 41 | 0.0 | 0.0 | 0.00 | 0.00 | 0.00 | 62 | 1016.1 |
| 20260902210048 | 93 | 41 | 0.0 | 0.9 | 0.00 | 0.00 | 0.00 | 64 | 1016.2 |
| 20260902204546 | 92 | 41 | 0.0 | 0.9 | 0.00 | 0.00 | 0.00 | 63 | 1016.3 |
| 20260902203045 | 94 | 41 | 0.0 | 3.5 | 0.00 | 0.00 | 0.00 | 57 | 1016.3 |
| 20260902201553 | 95 | 243 | 1.7 | 4.3 | 0.00 | 0.00 | 0.00 | 54 | 1016.5 |
| 20260902200045 | 96 | 336 | 0.9 | 3.5 | 0.00 | 0.00 | 0.00 | 53 | 1016.8 |
| 20260902194550 | 94 | 12 | 0.9 | 4.3 | 0.00 | 0.00 | 0.00 | 55 | 1016.9 |
| 20260902193038 | 95 | 313 | 0.0 | 3.5 | 0.00 | 0.00 | 0.00 | 55 | 1016.8 |
| 20260902191537 | 95 | 355 | 0.9 | 2.6 | 0.00 | 0.00 | 0.00 | 56 | 1017.0 |
| 20260902190033 | 94 | 348 | 0.9 | 5.2 | 0.00 | 0.00 | 0.00 | 59 | 1017.2 |
| 20260902184539 | 94 | 75 | 1.7 | 6.1 | 0.00 | 0.00 | 0.00 | 55 | 1017.3 |
| 20260902183030 | 94 | 233 | 0.0 | 4.3 | 0.00 | 0.00 | 0.00 | 57 | 1017.6 |
| 20260902181529 | 94 | 258 | 0.9 | 3.5 | 0.00 | 0.00 | 0.00 | 55 | 1017.6 |
| 20260902180025 | 93 | 232 | 1.7 | 5.2 | 0.00 | 0.00 | 0.00 | 57 | 1017.7 |
| 20260902174524 | 91 | 229 | 0.0 | 3.5 | 0.00 | 0.00 | 0.00 | 62 | 1017.9 |
| 20260902173026 | 92 | 224 | 0.9 | 4.3 | 0.00 | 0.00 | 0.00 | 62 | 1018.2 |
| 20260902171521 | 92 | 209 | 0.0 | 4.3 | 0.00 | 0.00 | 0.00 | 63 | 1018.3 |
| 20260902170020 | 90 | 194 | 0.9 | 4.3 | 0.00 | 0.00 | 0.00 | 64 | 1018.5 |
| 20260902164517 | 91 | 267 | 1.7 | 2.6 | 0.00 | 0.00 | 0.00 | 64 | 1018.6 |
| 20260902163016 | 91 | 318 | 0.9 | 7.0 | 0.00 | 0.00 | 0.00 | 64 | 1018.8 |
| 20260902161513 | 90 | 296 | 1.7 | 4.3 | 0.00 | 0.00 | 0.00 | 65 | 1018.8 |
| 20260902160013 | 89 | 348 | 0.9 | 4.3 | 0.00 | 0.00 | 0.00 | 68 | 1018.9 |
| 20260902154509 | 88 | 205 | 0.9 | 3.5 | 0.00 | 0.00 | 0.00 | 70 | 1019.0 |
| 20260902153005 | 87 | 63 | 0.9 | 4.3 | 0.00 | 0.00 | 0.00 | 73 | 1019.1 |
| 20260902151504 | 87 | 198 | 0.9 | 2.6 | 0.00 | 0.00 | 0.00 | 73 | 1019.1 |
| 20260902144559 | 86 | 195 | 1.7 | 2.6 | 0.00 | 0.00 | 0.00 | 73 | 1019.1 |
| 20260902143055 | 85 | 187 | 0.9 | 6.1 | 0.00 | 0.00 | 0.00 | 75 | 1018.9 |
| 20260902141551 | 82 | 250 | 1.7 | 5.2 | 0.00 | 0.00 | 0.00 | 80 | 1018.8 |
| 20260902140048 | 80 | 227 | 0.0 | 3.5 | 0.00 | 0.00 | 0.00 | 84 | 1018.9 |
| 20260902134542 | 78 | 220 | 0.0 | 2.6 | 0.00 | 0.00 | 0.00 | 92 | 1019.0 |
| 20260902133038 | 77 | 216 | 0.9 | 3.5 | 0.00 | 0.00 | 0.00 | 95 | 1018.9 |
| 20260902131540 | 76 | 216 | 0.0 | 1.7 | 0.00 | 0.00 | 0.00 | 96 | 1018.9 |
| 20260902130034 | 75 | 216 | 0.0 | 1.7 | 0.00 | 0.00 | 0.00 | 97 | 1018.9 |
| 20260902124533 | 74 | 216 | 0.0 | 0.0 | 0.00 | 0.00 | 0.00 | 96 | 1019.2 |
| 20260902123031 | 73 | 216 | 0.0 | 0.0 | 0.00 | 0.00 | 0.00 | 95 | 1019.3 |
| 20260902121529 | 72 | 216 | 0.0 | 0.0 | 0.00 | 0.00 | 0.00 | 95 | 1019.2 |
| 20260902120028 | 72 | 216 | 0.0 | 0.0 | 0.00 | 0.00 | 0.00 | 94 | 1019.1 |
| 20260902114529 | 72 | 216 | 0.0 | 0.0 | 0.00 | 0.00 | 0.00 | 94 | 1019.1 |
| 20260902113024 | 72 | 216 | 0.0 | 0.0 | 0.00 | 0.00 | 0.00 | 94 | 1018.8 |
| 20260902111522 | 72 | 216 | 0.0 | 0.0 | 0.00 | 0.00 | 0.00 | 94 | 1018.8 |
| 20260902110030 | 72 | 216 | 0.0 | 0.0 | 0.00 | 0.00 | 0.00 | 94 | 1018.5 |
| 20260902104540 | 72 | 216 | 0.0 | 0.0 | 0.00 | 0.00 | 0.00 | 93 | 1018.6 |
| 20260902103018 | 72 | 216 | 0.0 | 0.0 | 0.00 | 0.00 | 0.00 | 93 | 1018.4 |
| 20260902101517 | 72 | 216 | 0.0 | 0.0 | 0.00 | 0.00 | 0.00 | 93 | 1018.3 |
| 20260902100017 | 73 | 216 | 0.0 | 0.0 | 0.00 | 0.00 | 0.00 | 93 | 1018.4 |
| 20260902094515 | 73 | 216 | 0.0 | 0.0 | 0.00 | 0.00 | 0.00 | 93 | 1018.2 |
| 20260902093013 | 73 | 216 | 0.0 | 0.0 | 0.00 | 0.00 | 0.00 | 93 | 1018.2 |
| 20260902091515 | 73 | 216 | 0.0 | 0.0 | 0.00 | 0.00 | 0.00 | 93 | 1018.2 |
| 20260902090011 | 73 | 216 | 0.0 | 0.0 | 0.00 | 0.00 | 0.00 | 93 | 1018.1 |
| 20260902084510 | 73 | 216 | 0.0 | 0.0 | 0.00 | 0.00 | 0.00 | 93 | 1017.9 |
| 20260902083009 | 74 | 216 | 0.0 | 0.0 | 0.00 | 0.00 | 0.00 | 93 | 1017.8 |
| 20260902081509 | 74 | 216 | 0.0 | 0.0 | 0.00 | 0.00 | 0.00 | 93 | 1017.8 |
| 20260902080014 | 74 | 216 | 0.0 | 0.0 | 0.00 | 0.00 | 0.00 | 93 | 1017.7 |
| 20260902074506 | 74 | 216 | 0.0 | 0.0 | 0.00 | 0.00 | 0.00 | 93 | 1017.7 |
| 20260902073005 | 74 | 216 | 0.0 | 0.0 | 0.00 | 0.00 | 0.00 | 92 | 1017.6 |
| 20260902071504 | 74 | 216 | 0.0 | 0.0 | 0.00 | 0.00 | 0.00 | 92 | 1017.7 |
| 20260902070002 | 75 | 216 | 0.0 | 0.0 | 0.00 | 0.00 | 0.00 | 92 | 1017.7 |
| 20260902064501 | 75 | 216 | 0.0 | 0.0 | 0.00 | 0.00 | 0.00 | 92 | 1017.9 |
| 20260902063132 | 75 | 216 | 0.0 | 0.0 | 0.00 | 0.00 | 0.00 | 91 | 1017.9 |
| 20260902061559 | 75 | 216 | 0.0 | 0.0 | 0.00 | 0.00 | 0.00 | 91 | 1018.0 |
| 20260902060133 | 75 | 216 | 0.0 | 0.0 | 0.00 | 0.00 | 0.00 | 91 | 1018.2 |
| 20260902054557 | 75 | 216 | 0.0 | 0.0 | 0.00 | 0.00 | 0.00 | 91 | 1018.3 |
| 20260902053056 | 75 | 216 | 0.0 | 0.0 | 0.00 | 0.00 | 0.00 | 90 | 1018.2 |
| 20260902051603 | 76 | 216 | 0.0 | 0.0 | 0.00 | 0.00 | 0.00 | 90 | 1018.1 |
| 20260902050054 | 76 | 216 | 0.0 | 0.0 | 0.00 | 0.00 | 0.00 | 89 | 1018.0 |
| 20260902044553 | 76 | 216 | 0.0 | 0.0 | 0.00 | 0.00 | 0.00 | 89 | 1017.9 |
| 20260902043053 | 76 | 216 | 0.0 | 0.0 | 0.00 | 0.00 | 0.00 | 89 | 1017.9 |
| 20260902041550 | 76 | 216 | 0.0 | 0.0 | 0.00 | 0.00 | 0.00 | 88 | 1017.8 |
| 20260902040048 | 76 | 216 | 0.0 | 0.0 | 0.00 | 0.00 | 0.00 | 87 | 1017.9 |
| 20260902034547 | 77 | 216 | 0.0 | 0.0 | 0.00 | 0.00 | 0.00 | 85 | 1017.7 |
| 20260902033046 | 77 | 216 | 0.0 | 0.0 | 0.00 | 0.00 | 0.00 | 85 | 1017.6 |
| 20260902031547 | 77 | 216 | 0.0 | 0.0 | 0.00 | 0.00 | 0.00 | 85 | 1017.6 |
| 20260902030046 | 77 | 216 | 0.0 | 0.0 | 0.00 | 0.00 | 0.00 | 84 | 1017.7 |
| 20260902024545 | 78 | 216 | 0.0 | 0.0 | 0.00 | 0.00 | 0.00 | 83 | 1017.7 |
| 20260902023046 | 78 | 216 | 0.0 | 0.0 | 0.00 | 0.00 | 0.00 | 83 | 1017.8 |
| 20260902021547 | 79 | 216 | 0.0 | 0.0 | 0.00 | 0.00 | 0.00 | 83 | 1017.7 |
| 20260902020100 | 79 | 216 | 0.0 | 0.0 | 0.00 | 0.00 | 0.00 | 82 | 1017.4 |
| 20260902014550 | 80 | 216 | 0.0 | 0.0 | 0.00 | 0.00 | 0.00 | 81 | 1017.3 |
| 20260902013043 | 80 | 216 | 0.0 | 0.0 | 0.00 | 0.00 | 0.00 | 80 | 1017.1 |
| 20260902011542 | 81 | 216 | 0.0 | 0.0 | 0.00 | 0.00 | 0.00 | 79 | 1017.0 |
| 20260902010043 | 82 | 216 | 0.0 | 0.0 | 0.00 | 0.00 | 0.00 | 78 | 1016.9 |
| 20260902004542 | 83 | 216 | 0.0 | 0.0 | 0.00 | 0.00 | 0.00 | 76 | 1016.8 |
| 20260902003041 | 83 | 216 | 0.0 | 0.0 | 0.00 | 0.00 | 0.00 | 75 | 1016.8 |
| 20260902001540 | 84 | 216 | 0.0 | 0.0 | 0.00 | 0.00 | 0.00 | 74 | 1016.5 |
| 20260902000044 | 84 | 216 | 0.0 | 0.0 | 0.00 | 0.00 | 0.00 | 74 | 1016.8 |
| 20260901234558 | 84 | 216 | 0.0 | 0.0 | 0.00 | 0.00 | 0.00 | 75 | 1016.8 |
| 20260901233045 | 85 | 216 | 0.0 | 0.0 | 0.00 | 0.00 | 0.00 | 74 | 1016.7 |
| 20260901231540 | 86 | 216 | 0.0 | 0.0 | 0.00 | 0.00 | 0.00 | 71 | 1016.7 |
| 20260901230044 | 88 | 215 | 0.0 | 0.9 | 0.00 | 0.00 | 0.00 | 69 | 1016.7 |
| 20260901224541 | 90 | 215 | 0.0 | 2.6 | 0.00 | 0.00 | 0.00 | 60 | 1016.7 |
| 20260901223037 | 92 | 215 | 0.0 | 1.7 | 0.00 | 0.00 | 0.00 | 56 | 1016.8 |
| 20260901221601 | 93 | 215 | 1.7 | 4.3 | 0.00 | 0.00 | 0.00 | 53 | 1016.8 |
| 20260901220036 | 93 | 260 | 0.9 | 3.5 | 0.00 | 0.00 | 0.00 | 52 | 1016.6 |